Regional Weather Roundup
Issued by NWS Little Rock, AR

Home | Current Version | Previous Version | Graphics & Text | Print | Product List | Glossary On
Versions: 1 2 3 4 5 6 7 8 9 10 11 12 13 14 15 16 17 18 19 20 21 22 23 24 25 26 27 28 29 30 31 32 33 34 35 36 37 38 39 40 41 42 43 44 45 46 47 48 49 50
000
ASUS44 KLZK 310005
RWRLZK

WEATHER ROUNDUP FOR ARKANSAS
NATIONAL WEATHER SERVICE LITTLE ROCK AR
700 PM CDT THU JUL 30 2015

NOTE: "FAIR" INDICATES FEW OR NO CLOUDS BELOW 12,000 FEET WITH NO
SIGNIFICANT WEATHER AND/OR OBSTRUCTIONS TO VISIBILITY.

ARZ001-003-010-029-310100-
NORTHWEST ARKANSAS

CITY           SKY/WX    TMP DP  RH WIND       PRES   REMARKS
FAYETTEVILLE   LGT RAIN  79  73  82 CALM      30.13S
6HR MIN TEMP:  79; 6HR MAX TEMP:  88; 6HR PCP:  0.01;

FORT SMITH     CLOUDY    82  72  71 W6        30.06S HX  87
6HR MIN TEMP:  82; 6HR MAX TEMP:  94; 6HR PCP: TRACE;

HARRISON       CLOUDY    81  63  54 E5        30.15S
6HR MIN TEMP:  81; 6HR MAX TEMP:  87;

BENTONVILLE    CLOUDY    82  64  54 E7        30.15S
6HR MIN TEMP:  82; 6HR MAX TEMP:  88;

ROGERS         CLOUDY    81  67  62 E5        30.15S
6HR MIN TEMP:  81; 6HR MAX TEMP:  86;

SILOAM SPGS    CLOUDY    82  64  54 E6        30.12S
6HR MIN TEMP:  81; 6HR MAX TEMP:  88;

HIGHFILL       CLOUDY    83  67  58 E7        30.14S HX  85
6HR MIN TEMP:  83; 6HR MAX TEMP:  89;

SPRINGDALE     MOSUNNY   81  68  65 E6        30.15F
$$

ARZ004-005-016-310100-
NORTH CENTRAL ARKANSAS

CITY           SKY/WX    TMP DP  RH WIND       PRES   REMARKS
BATESVILLE     SUNNY     86  63  45 NE5       30.09S HX  87
6HR MIN TEMP:  86; 6HR MAX TEMP:  90;

FLIPPIN        MOSUNNY   82  68  61 CALM      30.11S HX  85
6HR MIN TEMP:  82; 6HR MAX TEMP:  90;

MTN HOME       MOSUNNY   79  69  71 CALM      30.12F
6HR MIN TEMP:  79; 6HR MAX TEMP:  87;

$$

ARZ040-041-310100-
WEST CENTRAL ARKANSAS

CITY           SKY/WX    TMP DP  RH WIND       PRES   REMARKS
MENA           CLOUDY    77  73  88 CALM      30.11F
MOUNT IDA      CLOUDY    76  74  93 CALM      30.06F FOG
6HR MIN TEMP:  75; 6HR MAX TEMP:  97; 6HR PCP:  0.35;

$$

ARZ009-017-025-026-028-310100-
NORTHEAST ARKANSAS

CITY           SKY/WX    TMP DP  RH WIND       PRES   REMARKS
JONESBORO      SUNNY     83  63  50 N6        30.08R
6HR MIN TEMP:  83; 6HR MAX TEMP:  87;

NEWPORT        SUNNY     82  67  60 NE7       30.09S
6HR MIN TEMP:  82; 6HR MAX TEMP:  87;

WALNUT RIDGE   SUNNY     84  61  45 NE7       30.08S
6HR MIN TEMP:  84; 6HR MAX TEMP:  88;

BLYTHEVILLE    SUNNY     84  65  52 NE8       30.07S HX  86
6HR MIN TEMP:  84; 6HR MAX TEMP:  88;

$$

ARZ022-023-033-042-044-310100-
CENTRAL ARKANSAS

CITY           SKY/WX    TMP DP  RH WIND       PRES   REMARKS
LITTLE ROCK    PTSUNNY   87  61  41 NE9       30.07R HX  87
6HR MIN TEMP:  87; 6HR MAX TEMP:  93;

N LITTLE ROCK  PTSUNNY   87  64  45 E13       30.07R HX  88
6HR MIN TEMP:  87; 6HR MAX TEMP:  96;

JACKSONVILLE   SUNNY     88  62  41 NE8       30.07S HX  88
6HR MIN TEMP:  88; 6HR MAX TEMP:  93;

SEARCY         SUNNY     85  63  47 N10       30.09S HX  86
6HR MIN TEMP:  85; 6HR MAX TEMP:  91;

HOT SPRINGS    CLOUDY    89  67  47 NE8       30.07S HX  92
6HR MIN TEMP:  89; 6HR MAX TEMP:  97;

RUSSELLVILLE   MOSUNNY   87  66  49 E6        30.07S HX  89
6HR MIN TEMP:  87; 6HR MAX TEMP:  93;

CLINTON        LGT RAIN  81  72  74 CALM      30.11S
$$

ARZ036-310100-
EAST ARKANSAS

CITY           SKY/WX    TMP DP  RH WIND       PRES   REMARKS
WEST MEMPHIS   SUNNY     85  63  47 N14       30.05S HX  86
6HR MIN TEMP:  85; 6HR MAX TEMP:  90;

$$

ARZ050-053-066-070-073-310100-
SOUTHWEST ARKANSAS

CITY           SKY/WX    TMP DP  RH WIND       PRES   REMARKS
ARKADELPHIA    FAIR      89  76  65 VRB3      30.04R HX 100
6HR MIN TEMP:  89; 6HR MAX TEMP:  97;

CAMDEN         MOSUNNY   90  70  51 N9        30.03R HX  95
TEXARKANA      CLOUDY    83  75  77 NE6       30.05R HX  90
6HR MIN TEMP:  79; 6HR MAX TEMP: 101; 6HR PCP:  0.37;

EL DORADO      MOSUNNY   90  74  59 N9        30.02R HX  99
6HR MIN TEMP:  90; 6HR MAX TEMP:  99;

DE QUEEN       CLOUDY    79  75  87 NE5       30.04R
6HR MIN TEMP:  75; 6HR MAX TEMP:  99; 6HR PCP:  0.01;

$$

ARZ056-057-069-310100-
SOUTHEAST ARKANSAS

CITY           SKY/WX    TMP DP  RH WIND       PRES   REMARKS
PINE BLUFF     MOSUNNY   87  65  47 NE8       30.06R HX  89
6HR MIN TEMP:  87; 6HR MAX TEMP:  93; 6HR PCP: TRACE;

STUTTGART      SUNNY     84  64  51 NE9       30.07R HX  86
6HR MIN TEMP:  84; 6HR MAX TEMP:  90;

MONTICELLO     SUNNY     89  69  51 NE9       30.03R HX  93
6HR MIN TEMP:  89; 6HR MAX TEMP:  96;


$$




USA.gov is the U.S. government's official web portal to all federal, state and local government web resources and services.